星链-1864 (STARLINK-1864 )

导读 | 星芒AI

STARLINK-1864 是 SpaceX Starlink 项目中的一颗低轨通信卫星,属于第 18 批发射的星链卫星群。该卫星于 2021 年 11 月 19 日由猎鹰 9 号火箭送入近地轨道,旨在为全球提供高速互联网服务。它运行在约 550 公里的高度,设计寿命约 5 至 7 年,具备自动避障和激光通信能力,有助于提升网络稳定性和数据传输效率。STARLINK-1864 的部署进一步增强了 Starlink 网络的覆盖范围和性能。

基本信息
目录编号:
47151
目录名称:
STARLINK-1864
国际标识:
2020-088AF
轨道中心:
EARTH
卫星名称:
星链-1864
卫星全名:
星链-1864 (STARLINK-1864 )
卫星状态:
已陨落 最后检测时间 2025-02-10
发射日期:
2020-11-25 UTC
国别 :
美国 (US)
星等 :
--
轨道信息
数据来源 国际轨道数据
星历时间: 2025-02-11T05:30:18+0800
轨道信息已过期308天
半长轴: 6534.435km
偏心率: 0.0005981
轨道倾角: 53.022°
近地点辐角 278.326°
升交点赤经 227.164°
平近点角 196.791°
近地点: 152.391km
远地点: 160.209km
周期: 87.614分钟
每日圈数: 16.435795
详细信息
固有亮度:
5
最大亮度:
2.5
卫星平台:
Starlink V1.0
覆盖范围:
全球
运营商:
太空探索技术公司
运营商所在国:
美国
制造商(研发单位):
太空探索技术公司
制造商所在国:
美国
使用方式:
暂无
卫星简介
星链(Starlink)计划是由太空探索技术公司(SpaceX)提出的一个巨型低轨卫星互联网星座项目,计划在2019年至2024年间在太空搭建由约1.2万颗卫星组成的“星链”网络,其中1584颗将部署在地球上空550千米处的近地轨道,并从2020年开始工作。该卫星仍在工作。